Location: Gu�tanj
(46.5431°N, 14.9692°E)
Time: 14:32:47
(UTC+00:00)

ARGOS - Pass Details

Date: 03 March 2021
Orbit: 819 x 835 km, 98.4° (Epoch: 14 April)

Event Time Altitude Azimuth Distance (km) Brightness Sun altitude
Rises 17:48:40 0° 162° (SSE) 3,366 6.1 -11.0°
Reaches altitude 10° 17:51:00 10° 162° (SSE) 2,438 5.4 -11.4°
Maximum altitude 17:56:25 85° 75° (ENE) 845 3.1 -12.4°
Drops below altitude 10° 18:01:53 10° 347° (NNW) 2,458 5.8 -13.3°
Sets 18:04:16 0° 347° (NNW) 3,397 6.6 -13.7°
